World > North America > United States > Iowa > Scotch Grove

Hourly Scotch Grove, IA Regional Weather

Feedback E-mail the Weather

Quick WX

Scotch Grove, IA Weather Maps

°F °C°F °C
Scotch Grove Weather Map
UTC Time: 8/15/2022, 02:56
Your Time:

Scotch Grove, IA Regional Weather

Expires:202208150300;;114793
ASUS43 KDMX 150206
RWRIA 

WEATHER ROUNDUP FOR IOWA
NATIONAL WEATHER SERVICE DES MOINES IA
900 PM CDT SUN AUG 14 2022

NOTE: "FAIR" INDICATES FEW OR NO CLOUDS BELOW 12,000 FEET WITH NO
SIGNIFICANT WEATHER AND/OR OBSTRUCTIONS TO VISIBILITY.

* - THESE STATIONS ARE NOT NWS STATIONS...THUS NOT UNDER NWS
QUALITY CONTROL.  THEY ALSO DO NOT REPORT WEATHER SUCH 
AS PRECIPITATION OR FOG.  


IAZ007>011-017>019-026>030-037>042-050>054-066-150300-
   NORTHEAST IOWA
  
CITY           SKY/WX    TMP DP  RH WIND       PRES   REMARKS
CEDAR RAPIDS   CLOUDY    70  64  81 NE14      30.03R                  
CHARLES CITY * CLOUDY    66  66 100 NE5       30.06F                  
CLINTON *      CLOUDY    68  67  96 N8        30.04R                  
DECORAH *      CLOUDY    66  66 100 N3        30.06S                  
DUBUQUE        CLOUDY    67  63  87 N8        30.05S                  
OELWEIN *      CLOUDY    68  64  88 NE5       30.07R                  
WATERLOO       CLOUDY    70  66  87 NE3       30.05R                  
$$
 

SKY/WX - Weather  TMP - Temperature  DP - Dew Point  RH - Humidity
WIND - Wind Direction/Speed PRES - Barometric Pressure VSB - Visibility
WCI - Wind Chill Index E13G22 Wind - East Wind 13 mph/Gusts of 22 mph

Trending Headlines

Scotch Grove Radar Loop



Scotch Grove Quick Facts


National Two Day Weather Forecast


E-mail the Scotch Grove Weather Forecast

Voice your opinion or tell us about page issues...